Regional Weather Roundup
Issued by NWS

Home | Current Version | Previous Version | Text Only | Print | Product List | Glossary On
Versions: 1 2 3 4 5 6 7 8 9 10 11 12 13 14 15 16 17 18 19 20 21 22 23 24 25 26 27 28 29 30 31 32 33 34 35 36 37 38 39 40 41 42 43 44 45 46 47 48 49 50
590
ASUS43 KLSX 272007
RWRMO

WEATHER SUMMARY FOR MISSOURI
NATIONAL WEATHER SERVICE SPRINGFIELD MO
300 PM CDT FRI MAY 27 2016

NOTE: "FAIR" INDICATES FEW OR NO CLOUDS BELOW 12,000 FEET WITH NO
       SIGNIFICANT WEATHER AND/OR OBSTRUCTIONS TO VISIBILITY.
       CURRENT SKY AND/OR WEATHER CONDITIONS ARE NOT AVAILABLE FOR
       CHILLICOTHE AND FARMINGTON.

MOZ001>031-035>038-043-044-053-054-272100-
...NORTHERN AND WESTERN MISSOURI...

CITY           SKY/WX    TMP DP  RH WIND       PRES   REMARKS
KANSAS CTY INT CLOUDY    77  64  64 W3        29.75R
KANSAS C DTWN  PTSUNNY   81  65  58 S6        29.72S
LEE`S SUMMIT   CLOUDY    79  67  66 SE8       29.75S
ST JOSEPH      LGT RAIN  73  65  75 S5        29.74S
CHILLICOTHE      N/A     81  67  62 VRB3      29.74F
KIRKSVILLE     MOSUNNY   81  67  62 S12       29.76F

$$
MOZ066>068-077>081-088>096-101>105-272100-
...SOUTHWEST MISSOURI...

CITY           SKY/WX    TMP DP  RH WIND       PRES   REMARKS
SPRINGFIELD    LGT RAIN  74  67  78 S16       29.78F
JOPLIN         LGT RAIN  71  65  81 S9        29.75F
BRANSON        CLOUDY    72  66  83 SE6       29.80F

$$
MOZ032>034-039>042-045>050-055>058-069>072-272100-
...CENTRAL MISSOURI...

CITY           SKY/WX    TMP DP  RH WIND       PRES   REMARKS
COLUMBIA       CLOUDY    78  68  71 S12       29.77F
JEFFERSON CITY CLOUDY    78  68  71 S8        29.75F
SEDALIA        MOSUNNY   81  68  64 S9        29.76F
WHITEMAN AFB   CLOUDY    80  69  68 S13       29.74S
WARRENSBURG    MOSUNNY   79  66  65 S10G16    29.74S

$$
MOZ051-052-059>065-272100-
...EAST CENTRAL MISSOURI...

CITY           SKY/WX    TMP DP  RH WIND       PRES   REMARKS
ST LOUIS INTL  CLOUDY    77  68  73 S13G21    29.83F
SPIRIT OF STL  CLOUDY    76  69  79 VRB7G18   29.80F
ST CHARLES     PTSUNNY   77  71  82 SE14      29.81F

$$
MOZ072>076-082>087-097>100-106>115-272100-
...SOUTH CENTRAL AND SOUTHEAST MISSOURI...

CITY           SKY/WX    TMP DP  RH WIND       PRES   REMARKS
CAPE GIRARDEAU CLOUDY    78  70  76 S10       29.85F
FARMINGTON     CLOUDY    74  69  85 S15G22    29.85F
POPLAR BLUFF   LGT RAIN  70  68  93 S13       29.86F
WEST PLAINS    LGT RAIN  72  67  84 S8        29.83F

$$



USA.gov is the U.S. government's official web portal to all federal, state and local government web resources and services.